www.pogodaiklimat.ru

Погода и климат >> Архив погоды >> Самоа >> Togitogiga


ПОГОДА в Togitogiga

  • Прогноз погоды в Togitogiga
  • Монитор погоды в Togitogiga
  • Климат города

АРХИВ ПОГОДЫ в Togitogiga

Время (UTC), дата Ветер
(напр.,м/с)
 
Видим.   Явления Облачность Т
(С)
Тd
(С)
f
(%)
Тe
(С)
Тes
(С)
Комфортность P
(гПа)
Po
(гПа)
Тmin
(С)
Tmax
(С)
R
(мм)
R24
(мм)
S
(см)
18 17.09 штиль 0 н/о н/о +22.4 +22.4 100 +30 +30 очень
душно
1011.7 1011.3
21 17.09 СВ 1 н/о н/о +27.1 +27.1 100 +43 +43 опасность
перегрева
1012.7 1012.3 0.5
00 18.09 В 1 н/о н/о +29.6 +29.6 100 +53 +53 опасность
перегрева
1010.7 1010.3 +22.3
03 18.09 СВ 1 н/о н/о +27.7 +27.7 100 +45 +45 опасность
перегрева
1009.5 1009.1
06 18.09 СВ 1 н/о н/о +23.8 +23.8 100 +32 +32 очень
душно
1010.8 1010.4
09 18.09 СВ 1 н/о н/о +23.1 +23.1 100 +32 +32 очень
душно
1011.9 1011.5
12 18.09 СВ 1 н/о н/о +23.3 +23.3 100 +33 +33 очень
душно
1010.4 1010.0 +31.7
15 18.09 СВ 1 н/о н/о +23.1 +23.1 100 +32 +32 очень
душно
1009.2 1008.8
18 18.09 штиль 0 н/о н/о +23.1 +23.1 100 +32 +32 очень
душно
1010.6 1010.2 0.5
21 18.09 В 1 н/о н/о +28.5 +28.5 100 +48 +48 опасность
перегрева
1011.4 1011.0
00 19.09 В 1 н/о н/о +29.4 +29.4 100 +53 +53 опасность
перегрева
1009.5 1009.1 +22.0
03 19.09 В 1 н/о н/о +25.9 +25.9 100 +38 +38 очень
душно
1008.7 1008.3
06 19.09 штиль 0 н/о н/о +24.1 +24.1 100 +33 +33 очень
душно
1009.8 1009.4
09 19.09 штиль 0 н/о н/о +23.4 +23.4 100 +33 +33 очень
душно
1010.7 1010.3 5
12 19.09 С 1 н/о н/о +23.1 +23.1 100 +32 +32 очень
душно
1010.6 1010.2 +30.1 0.5
15 19.09 В 1 н/о н/о +22.9 +22.9 100 +32 +32 очень
душно
1009.1 1008.7 0.5
18 19.09 штиль 0 н/о н/о +22.4 +22.4 100 +30 +30 очень
душно
1011.4 1011.0
21 19.09 штиль 0 н/о н/о +23.3 +23.3 100 +33 +33 очень
душно
1011.7 1011.3 0.5
00 20.09 Ю 4 н/о н/о +27.8 +27.8 100 +45 +45 опасность
перегрева
1007.8 1007.4 +22.8 0.5
03 20.09 В 1 н/о н/о +29.1 +29.1 100 +51 +51 опасность
перегрева
1007.4 1007.0
06 20.09 СВ 1 н/о н/о +24.8 +24.8 100 +35 +35 очень
душно
1009.3 1008.9
09 20.09 штиль 0 н/о н/о +23.7 +23.7 100 +32 +32 очень
душно
1010.2 1009.8
12 20.09 штиль 0 н/о н/о +21.5 +21.5 100 +28 +28 очень
душно
1009.9 1009.5 +30.2
15 20.09 штиль 0 н/о н/о +22.3 +22.3 100 +30 +30 очень
душно
1009.9 1009.5
18 20.09 штиль 0 н/о н/о +22.7 +22.7 100 +31 +31 очень
душно
1011.1 1010.7 0.5
21 20.09 В 1 н/о н/о +27.0 +27.0 100 +42 +42 опасность
перегрева
1012.4 1012.0
00 21.09 В 1 н/о н/о +29.3 +29.3 100 +52 +52 опасность
перегрева
1010.4 1010.0 +22.2
03 21.09 СВ 1 н/о н/о +29.2 +29.2 100 +52 +52 опасность
перегрева
1007.9 1007.5
06 21.09 штиль 0 н/о н/о +24.8 +24.8 100 +35 +35 очень
душно
1009.6 1009.2
09 21.09 штиль 0 н/о н/о +23.3 +23.3 100 +33 +33 очень
душно
1011.4 1011.0
12 21.09 штиль 0 н/о н/о +21.8 +21.8 100 +28 +28 душно 1010.5 1010.1 +29.7
15 21.09 С 1 н/о н/о +20.4 +20.4 100 +26 +26 душно 1010.1 1009.7
18 21.09 штиль 0 н/о н/о +20.6 +20.6 100 +25 +25 комфорт 1011.4 1011.0
21 21.09 В 1 н/о н/о +29.5 +29.5 100 +53 +53 опасность
перегрева
1012.3 1011.9
00 22.09 В 1 н/о н/о +29.5 +29.5 100 +53 +53 опасность
перегрева
1012.3 1011.9
03 22.09 В 1 н/о н/о +28.2 +28.2 100 +47 +47 опасность
перегрева
1008.5 1008.1
06 22.09 штиль 0 н/о н/о +24.8 +24.8 100 +35 +35 очень
душно
1010.0 1009.6
09 22.09 штиль 0 н/о н/о +21.6 +21.6 100 +28 +28 очень
душно
1011.5 1011.1
12 22.09 СВ 1 н/о н/о +20.5 +20.5 100 +26 +26 душно 1011.1 1010.7 +30.1
15 22.09 С 1 н/о н/о +20.1 +20.1 100 +25 +25 комфорт 1009.9 1009.5
18 22.09 С 1 н/о н/о +20.0 +20.0 100 +25 +25 комфорт 1011.5 1011.1
21 22.09 Ю 1 н/о н/о +27.3 +27.3 100 +43 +43 опасность
перегрева
1012.6 1012.2
00 23.09 В 1 н/о н/о +31.5 +31.5 100 +63 +63 опасность
перегрева
1010.8 1010.4 +20.0
03 23.09 СВ 1 н/о н/о +30.6 +30.6 100 +59 +59 опасность
перегрева
1009.4 1009.0
06 23.09 штиль 0 н/о н/о +25.7 +25.7 100 +38 +38 очень
душно
1010.5 1010.1
09 23.09 штиль 0 н/о н/о +22.6 +22.6 100 +31 +31 очень
душно
1012.8 1012.4
12 23.09 штиль 0 н/о н/о +21.2 +21.2 100 +27 +27 душно 1012.0 1011.6 +30.9
15 23.09 штиль 0 н/о н/о +20.4 +20.4 100 +24 +24 комфорт 1010.4 1010.0
18 23.09 штиль 0 н/о н/о +20.4 +20.4 100 +24 +24 комфорт 1011.9 1011.5
21 23.09 В 1 н/о н/о +29.1 +29.1 100 +51 +51 опасность
перегрева
1012.8 1012.4
00 24.09 В 1 н/о н/о +31.4 +31.4 100 +63 +63 опасность
перегрева
1011.2 1010.8 +19.7
03 24.09 В 1 н/о н/о +31.1 +31.1 100 +61 +61 опасность
перегрева
1009.5 1009.1
06 24.09 В 1 н/о н/о +26.1 +26.1 100 +39 +39 очень
душно
1010.4 1010.0
09 24.09 СВ 1 н/о н/о +23.2 +23.2 100 +33 +33 очень
душно
1012.1 1011.7
12 24.09 штиль 0 н/о н/о +21.3 +21.3 100 +27 +27 душно 1011.5 1011.1 +31.9

 

Местоположение метеостанции Togitogiga (Самоа): широта -14.03 долгота -171.77 высота над уровнем моря 4 м.

В архиве по умолчанию представлена погода в Togitogiga за последнюю неделю. Архивные данные за месяц целиком и за предыдущие месяцы, начиная с января 2011 года, Вы можете получить, выбрав интересующий диапазон дат из раскрывающегося списка и нажав кнопку "Ввод!".


*Определитесь, кто Вы:
робот инопланетянин человек

Внимание! Время в таблицах - всемирное. Для получения местного времени необходимо прибавить поправку, которая в Togitogiga равна 13 ч.

Смотрите также архив погоды в соседних городах и на ближайших метеорологических станциях:

Погода в Le Mafa (Самоа) (20 км)
Погода в Apia (Американское Самоа) (27 км)
Погода в Lufi-Lufi (Самоа) (28 км)
Погода в Faleolo Int East (Самоа) (33 км)
Погода в Faleolo Int Airport (Американское Самоа) (35 км)
Погода в Faleolo Int Airport (Самоа) (35 км)
Погода в Manono (Самоа) (42 км)
Погода в Maota Int Airport (Самоа) (62 км)
Погода в Le Piu Tai (Самоа) (92 км)
Погода в Mount Talu (Самоа) (115 км)

Пояснения к столбцам:

Ветер - указаны скорость ветра в м/с - средняя за 10 мин, порывы в срок и между сроками (в фигурных скобках) и направление, откуда дует ветер: С - северный, СВ - северо-восточный, В - восточный, ЮВ - юго-восточный, Ю - южный, ЮЗ - юго-западный, З - западный, СЗ - северо-западный.
Видимость - горизонтальная дальность видимости в метрах или километрах. При видимости от 1 до 10 км при отсутствии осадков обычно наблюдается дымка, при ухудшении видимости до 1 км и менее - туман. В сухую погоду видимость может ухудшаться дымом, пылью или мглою.
Явления - указаны атмосферные явления, наблюдавшиеся в срок или в последний час перед сроком; фигурными скобками обозначены явления, наблюдавшиеся между сроками (за 1-3 часа до срока); квадратными скобками обозначены град или гололедные отложения с указанием их диаметра в мм.
Облачность - указаны через наклонную черту общая и нижняя облачность в баллах и высота нижней границы облаков в метрах; квадратными скобками обозначены формы облаков: Ci - перистые, Cs - перисто-слоистые, Cc - перисто-кучевые, Ac - высококучевые, As - высокослоистые, Sc - слоисто-кучевые, Ns - слоисто-дождевые, Cu - кучевые, Cb - кучево-дождевые. Подробнее классификацию облаков см. в Атласе облаков (PDF).
T - Температура воздуха - температура, измеренная на высоте 2 м над землей.
Td - Температура точки росы - температура, при понижении до которой содержащийся в воздухе водяной пар достигнет насыщения.
f - Относительная влажность воздуха - влажноcть воздуха, измеренная на высоте 2 м над землей.
Te - Эффективная температура - температура, которую ощущает одетый по сезону человек в тени. Характеристика душности погоды. При расчете учитывается влияние влажности воздуха и скорости ветра на теплоощущения человека.
Tes - Эффективная температура на солнце - температура, которую ощущает человек, с поправкой на солнечный нагрев. Характеристика знойности погоды. Зависит от высоты солнца над горизонтом, облачности и скорости ветра. Ночью, в пасмурную погоду, а также при ветре 12 м/с и более поправка равна нулю.
P - Атмосферное давление - приведенное к уровню моря атмосферное давление.
Po - Атмосферное давление - измеренное на уровне метеостанции атмосферное давление.
Tmin - Минимальная температура - минимум температуры воздуха на высоте 2 м над землей.
Tmax - Максимальная температура - максимум температуры воздуха на высоте 2 м над землей.
R - Количество осадков - Количество выпавших осадков за период времени, мм. При наведении курсора мыши на число - период времени, за который выпало указанное количество осадков.
R24 - Количество осадков - Количество выпавших осадков за 24 часа, мм.
S - Снежный покров - Высота снежного покрова, см. При наведении курсора мыши на число - состояние снежного покрова и степень покрытия местности в баллах.